Dewpoint
47 48 49 50 48 47 44 41 37 32 33 36 36 39 40 41 40 36 37 39 39 39 38 37 36 37 38 37 36 37 37 39 40 39 40 40 40 40
45 45 46 48 47 46 44 42 41 38 35 36 36 38 39 39 37 34 34 36 37 37 37 35 35 35 35 35 34 35 35 36 36 37 37 38 39 39
44 44 45 46 46 45 44 42 41 40 35 36 36 37 37 35 33 34 34 33 33 34 34 33 33 34 33 33 33 33 34 34 34 35 35 36 36 36
43 43 44 46 46 45 43 42 41 41 36 32 33 34 35 34 32 32 31 31 31 33 32 32 31 31 31 31 31 31 31 32 32 33 33 34 35 35
41 42 42 43 42 44 43 42 41 41 38 34 32 34 33 32 31 31 31 30 30 33 32 31 31 30 29 29 29 29 29 29 30 30 31 32 32 32
40 40 41 42 42 41 43 42 40 38 37 34 33 32 31 31 31 29 28 29 29 29 30 29 30 30 29 29 28 28 28 28 28 28 28 28 29 30
39 39 41 41 42 41 42 42 40 37 35 33 32 32 30 29 28 28 27 28 28 28 29 28 27 27 28 28 28 28 26 25 26 26 27 26 26 27
37 39 39 40 41 40 40 40 39 37 34 33 32 30 29 29 28 27 26 26 26 27 28 27 27 26 26 25 28 27 26 25 24 24 24 24 24 24
36 36 37 37 36 37 37 38 38 37 35 36 33 32 30 30 29 27 26 26 25 26 26 26 26 25 25 24 26 27 26 24 23 23 23 23 23 23
35 35 36 35 36 36 35 35 37 38 36 37 35 34 33 31 30 28 27 26 26 26 25 23 23 24 25 23 26 27 26 25 24 22 22 21 20 21
35 34 33 32 32 35 34 34 33 33 35 35 35 35 34 33 32 29 27 25 24 25 25 23 22 21 22 22 24 27 26 25 24 23 22 21 21 21
33 33 33 32 32 32 32 33 33 32 34 34 33 34 34 33 32 30 29 27 24 23 26 23 20 21 17 22 23 24 24 24 24 22 22 22 21 18
33 32 32 33 33 32 32 31 32 31 32 33 33 33 33 32 31 31 30 30 26 25 27 25 19 17 18 19 22 23 22 21 21 20 20 19 21 20
33 33 32 33 33 32 29 30 30 28 30 32 32 31 31 32 32 32 31 32 30 29 28 27 24 24 21 18 19 21 20 21 21 20 20 22 23 21
34 34 34 33 33 30 31 30 24 26 27 29 28 28 31 32 31 29 30 29 29 28 28 28 27 25 25 22 20 18 18 20 20 19 19 20 21 21
33 33 33 31 29 25 28 25 24 24 26 28 27 27 29 29 29 28 26 28 26 26 28 27 27 25 23 23 23 19 20 19 21 19 19 17 21 22
31 31 29 28 26 26 26 22 21 23 23 24 25 26 27 27 25 26 27 26 24 24 24 26 26 26 26 24 21 22 21 19 20 20 19 18 21 22
29 28 27 28 25 25 26 24 20 21 23 23 21 23 25 26 25 25 24 24 24 23 23 23 22 22 22 23 25 23 20 21 20 22 21 19 20 22
26 27 26 26 23 23 23 21 22 21 22 23 23 23 23 23 23 23 23 22 22 23 23 23 23 22 20 20 20 26 22 21 22 23 22 20 17 20
27 25 23 21 19 19 19 18 16 19 15 19 21 23 23 23 21 21 22 20 19 18 20 20 23 24 24 22 18 16 26 23 23 21 16 14 17 22
27 26 25 22 21 21 21 20 19 19 15 17 16 21 24 24 23 22 22 19 19 19 19 20 22 22 19 18 14 17 21 26 23 21 17 17 15 14
28 28 27 26 24 23 23 22 20 18 17 17 17 17 20 25 25 23 21 19 16 20 19 21 20 19 15 17 17 18 18 17 23 26 23 22 17 15
28 29 28 28 27 26 26 24 23 22 22 21 22 22 19 20 20 23 19 19 18 17 16 17 18 16 17 19 19 20 18 15 17 17 23 26 25 25
Lifted_Index
4 4 3 2 2 2 1 1 2 2 4 6 8 9 10 11 12 13 14 15 15 15 16 16 16 15 14 15 15 15 15 14 14 14 13 13 12 12
5 4 3 3 2 2 2 2 2 2 3 5 7 9 10 11 12 13 14 15 15 16 16 17 16 16 15 15 16 15 15 15 14 14 13 13 13 12
5 5 4 3 4 3 3 2 2 3 3 4 6 8 9 10 11 13 14 16 16 17 17 17 17 16 16 16 16 16 16 16 15 15 14 14 13 13
6 6 5 5 5 5 4 3 4 4 4 4 6 7 9 10 11 12 14 16 17 17 17 17 16 16 16 16 16 16 17 17 16 16 15 15 14 14
7 7 7 6 6 6 6 5 5 5 5 5 5 7 8 10 11 12 14 16 17 17 17 17 17 17 17 17 17 17 17 17 17 17 16 16 15 15
7 8 8 8 7 6 6 5 5 5 5 5 5 6 8 9 10 11 13 15 16 17 17 16 17 17 17 17 17 17 17 17 17 17 16 16 16 16
7 8 8 8 8 7 6 5 5 5 5 5 5 6 7 8 9 10 12 13 15 15 15 16 16 17 17 17 17 17 17 17 17 17 16 16 16 16
7 8 8 9 9 8 7 6 5 5 5 5 5 5 6 7 9 10 11 12 13 14 14 15 16 16 17 17 17 17 17 18 18 17 16 16 16 16
7 8 8 8 9 8 7 7 6 6 5 5 5 5 6 7 8 9 10 11 12 13 14 14 15 15 16 17 17 17 18 18 18 17 17 16 16 16
7 8 9 8 9 8 8 8 7 7 6 6 5 5 6 7 8 8 9 11 12 13 13 13 14 14 15 16 16 17 17 18 18 17 17 17 17 16
6 7 9 9 9 9 9 8 8 7 7 6 6 6 7 8 8 8 9 10 11 12 12 13 13 13 14 15 15 16 17 17 18 18 17 17 17 16
5 6 8 9 9 9 9 9 8 8 7 7 7 7 8 8 9 9 9 10 11 11 11 12 13 13 13 14 14 15 16 16 17 18 18 17 17 16
5 5 7 8 9 9 9 9 8 8 7 7 7 8 8 9 9 10 10 11 11 11 11 12 12 13 12 12 13 14 15 15 16 17 18 18 17 17
5 6 6 8 8 9 9 9 9 8 8 7 7 8 8 9 9 10 10 11 11 11 11 12 12 12 12 12 12 13 14 14 15 16 17 17 17 17
6 6 7 7 8 9 9 9 9 9 8 8 8 8 8 9 9 10 10 10 11 11 11 11 11 11 12 12 12 12 13 14 14 15 16 16 16 16
7 7 8 8 8 8 9 10 10 10 9 9 8 8 8 8 9 9 9 10 10 10 10 11 11 11 12 12 12 13 13 14 14 15 15 15 15 15
8 8 8 7 7 8 9 10 10 10 10 9 9 9 9 9 9 9 9 9 9 10 10 10 10 11 11 12 12 13 13 14 14 15 15 15 15 15
8 7 7 7 7 8 9 10 10 10 11 11 10 10 10 9 9 9 9 9 9 9 10 10 10 11 11 12 13 13 14 14 15 15 15 14 14 15
7 7 6 7 7 8 9 10 10 11 11 12 11 11 11 11 10 10 10 9 9 10 10 11 11 12 12 12 13 14 14 14 15 15 14 14 14 15
7 7 7 7 8 9 10 10 11 12 12 12 12 12 12 12 12 12 11 11 11 11 11 12 13 13 13 13 13 14 14 15 14 14 14 14 14 14
7 7 8 8 9 9 10 11 11 12 12 12 12 12 13 13 13 13 12 12 12 12 13 13 14 14 14 14 13 14 14 15 14 14 14 14 14 13
7 8 8 8 9 9 10 10 11 11 12 12 13 13 13 13 14 13 13 13 13 13 13 13 14 14 14 14 13 13 14 14 14 14 14 14 13 13
7 7 8 8 9 9 10 10 10 11 11 12 13 13 13 14 14 14 14 14 13 13 13 13 14 14 14 13 13 13 13 14 14 14 14 14 14 13